| time (UTC) | temp F | wind direction | speed MPH | gust MPH | rain 1hr in | rain 24hr in | rain mn in | humidity % | barometer mb |
| 20260901110603 | 65 | 57 | 0.0 | 2.0 | 0.00 | 0.01 | 0.01 | 99 | 1012.2 |
| 20260901110058 | 65 | 44 | 1.0 | 2.0 | 0.00 | 0.01 | 0.01 | 99 | 1012.2 |
| 20260901110007 | 65 | 93 | 0.0 | 0.0 | 0.00 | 0.16 | 0.01 | 99 | 1010.7 |
| 20260901105555 | 65 | 72 | 0.0 | 2.0 | 0.00 | 0.01 | 0.01 | 99 | 1012.3 |
| 20260901105054 | 65 | 51 | 1.0 | 2.0 | 0.00 | 0.01 | 0.01 | 99 | 1012.1 |
| 20260901104550 | 65 | 64 | 1.0 | 2.0 | 0.00 | 0.01 | 0.01 | 99 | 1012.2 |
| 20260901104507 | 65 | 93 | 0.0 | 0.0 | 0.00 | 0.16 | 0.01 | 99 | 1010.5 |
| 20260901104040 | 64 | 64 | 0.0 | 2.0 | 0.00 | 0.01 | 0.01 | 99 | 1012.2 |
| 20260901103539 | 64 | 65 | 0.0 | 2.0 | 0.00 | 0.01 | 0.01 | 99 | 1012.1 |
| 20260901103036 | 64 | 95 | 0.0 | 2.0 | 0.00 | 0.01 | 0.01 | 99 | 1011.8 |
| 20260901103007 | 65 | 93 | 0.0 | 0.0 | 0.00 | 0.16 | 0.01 | 99 | 1010.3 |
| 20260901102535 | 64 | 51 | 1.0 | 2.0 | 0.00 | 0.01 | 0.01 | 99 | 1011.9 |
| 20260901102036 | 64 | 61 | 0.0 | 1.0 | 0.00 | 0.01 | 0.01 | 99 | 1012.0 |
| 20260901101531 | 64 | 52 | 2.0 | 2.0 | 0.00 | 0.01 | 0.01 | 99 | 1012.0 |
| 20260901101507 | 65 | 93 | 0.0 | 0.0 | 0.01 | 0.16 | 0.01 | 99 | 1010.3 |
| 20260901101031 | 64 | 54 | 0.0 | 2.0 | 0.00 | 0.01 | 0.01 | 99 | 1012.0 |
| 20260901100525 | 64 | 53 | 1.0 | 2.0 | 0.00 | 0.01 | 0.01 | 99 | 1012.0 |
| 20260901100025 | 64 | 45 | 2.0 | 2.0 | 0.00 | 0.01 | 0.01 | 99 | 1012.0 |
| 20260901100006 | 65 | 93 | 0.0 | 0.0 | 0.01 | 0.16 | 0.01 | 99 | 1010.3 |
| 20260901095523 | 64 | 43 | 0.0 | 2.0 | 0.00 | 0.01 | 0.01 | 99 | 1012.1 |
| 20260901095021 | 65 | 63 | 2.0 | 2.0 | 0.00 | 0.01 | 0.01 | 99 | 1012.1 |
| 20260901094516 | 65 | 50 | 1.0 | 2.0 | 0.00 | 0.01 | 0.01 | 99 | 1012.3 |
| 20260901094506 | 65 | 93 | 0.0 | 0.0 | 0.01 | 0.16 | 0.01 | 99 | 1010.6 |
| 20260901094016 | 65 | 71 | 2.0 | 2.0 | 0.00 | 0.01 | 0.01 | 99 | 1012.3 |
| 20260901093516 | 65 | 75 | 1.0 | 2.0 | 0.00 | 0.01 | 0.01 | 99 | 1012.3 |
| 20260901093011 | 65 | 58 | 2.0 | 2.0 | 0.00 | 0.01 | 0.01 | 99 | 1012.3 |
| 20260901093007 | 65 | 93 | 0.0 | 0.0 | 0.01 | 0.16 | 0.01 | 99 | 1010.7 |
| 20260901092507 | 65 | 62 | 2.0 | 2.0 | 0.00 | 0.01 | 0.01 | 99 | 1012.5 |
| 20260901092002 | 65 | 44 | 0.0 | 2.0 | 0.00 | 0.01 | 0.01 | 99 | 1012.4 |
| 20260901091506 | 65 | 93 | 0.0 | 1.0 | 0.00 | 0.15 | 0.00 | 99 | 1011.0 |
| 20260901091458 | 65 | 72 | 0.0 | 2.0 | 0.02 | 0.01 | 0.01 | 99 | 1012.7 |
| 20260901090952 | 65 | 66 | 2.0 | 2.0 | 0.02 | 0.01 | 0.01 | 99 | 1012.6 |
| 20260901090452 | 65 | 60 | 1.0 | 1.0 | 0.00 | 0.00 | 0.00 | 99 | 1012.5 |
| 20260901090007 | 65 | 93 | 0.0 | 1.0 | 0.00 | 0.15 | 0.00 | 99 | 1010.8 |
| 20260901085947 | 65 | 66 | 0.0 | 2.0 | 0.00 | 0.00 | 0.00 | 99 | 1012.5 |
| 20260901085443 | 65 | 68 | 0.0 | 2.0 | 0.00 | 0.00 | 0.00 | 99 | 1012.5 |
| 20260901084939 | 65 | 40 | 1.0 | 2.0 | 0.02 | 0.00 | 0.00 | 99 | 1012.6 |
| 20260901084506 | 65 | 93 | 0.0 | 0.0 | 0.00 | 0.15 | 0.00 | 99 | 1010.9 |
| 20260901084435 | 65 | 75 | 2.0 | 2.0 | 0.02 | 0.00 | 0.00 | 99 | 1012.7 |
| 20260901083931 | 65 | 60 | 0.0 | 1.0 | 0.00 | 0.00 | 0.00 | 99 | 1012.7 |
| 20260901083431 | 65 | 26 | 0.0 | 2.0 | 0.00 | 0.00 | 0.00 | 99 | 1012.4 |
| 20260901083009 | 65 | 93 | 0.0 | 0.0 | 0.00 | 0.15 | 0.00 | 99 | 1010.7 |
| 20260901082929 | 65 | 89 | 0.0 | 1.0 | 0.00 | 0.00 | 0.00 | 99 | 1012.6 |
| 20260901082424 | 65 | 37 | 0.0 | 1.0 | 0.00 | 0.00 | 0.00 | 99 | 1012.6 |
| 20260901081919 | 65 | 72 | 2.0 | 2.0 | 0.00 | 0.00 | 0.00 | 99 | 1012.6 |
| 20260901081508 | 65 | 93 | 0.0 | 0.0 | 0.00 | 0.15 | 0.00 | 99 | 1010.9 |
| 20260901081414 | 65 | 53 | 2.0 | 2.0 | 0.00 | 0.00 | 0.00 | 99 | 1012.3 |
| 20260901080910 | 65 | 68 | 1.0 | 2.0 | 0.00 | 0.00 | 0.00 | 99 | 1012.7 |
| 20260901080404 | 65 | 61 | 0.0 | 2.0 | 0.00 | 0.00 | 0.00 | 99 | 1012.8 |
| 20260901080007 | 65 | 93 | 0.0 | 1.0 | 0.00 | 0.15 | 0.00 | 99 | 1011.3 |
| 20260901075904 | 65 | 61 | 1.0 | 2.0 | 0.00 | 0.00 | 0.00 | 99 | 1013.0 |
| 20260901075359 | 65 | 41 | 1.0 | 2.0 | 0.00 | 0.00 | 0.00 | 99 | 1013.0 |
| 20260901074853 | 65 | 82 | 0.0 | 2.0 | 0.00 | 0.00 | 0.00 | 99 | 1013.0 |
| 20260901074506 | 65 | 93 | 0.0 | 0.0 | 0.00 | 0.15 | 0.00 | 99 | 1011.3 |
| 20260901074353 | 65 | 67 | 2.0 | 2.0 | 0.00 | 0.00 | 0.00 | 99 | 1013.0 |
| 20260901073849 | 65 | 64 | 1.0 | 2.0 | 0.00 | 0.00 | 0.00 | 99 | 1013.0 |
| 20260901073344 | 65 | 60 | 2.0 | 2.0 | 0.00 | 0.00 | 0.00 | 99 | 1013.1 |
| 20260901072840 | 65 | 50 | 0.0 | 2.0 | 0.00 | 0.00 | 0.00 | 99 | 1012.8 |
| 20260901072340 | 65 | 68 | 1.0 | 3.0 | 0.00 | 0.00 | 0.00 | 99 | 1012.9 |
| 20260901071835 | 65 | 60 | 1.0 | 2.0 | 0.00 | 0.00 | 0.00 | 99 | 1013.0 |
| 20260901071333 | 65 | 43 | 1.0 | 2.0 | 0.00 | 0.00 | 0.00 | 99 | 1013.1 |
| 20260901070832 | 65 | 72 | 1.0 | 2.0 | 0.00 | 0.00 | 0.00 | 99 | 1013.1 |
| 20260901070329 | 65 | 87 | 0.0 | 1.0 | 0.00 | 0.00 | 0.00 | 99 | 1012.9 |
| 20260901070007 | 65 | 93 | 0.0 | 0.0 | 0.00 | 0.15 | 0.00 | 99 | 1011.3 |
| 20260901065827 | 65 | 83 | 0.0 | 2.0 | 0.00 | 0.00 | 0.00 | 99 | 1013.0 |
| 20260901065323 | 65 | 43 | 1.0 | 2.0 | 0.00 | 0.00 | 0.00 | 99 | 1012.8 |
| 20260901064819 | 64 | 52 | 1.0 | 2.0 | 0.00 | 0.00 | 0.00 | 98 | 1013.0 |
| 20260901064314 | 64 | 53 | 2.0 | 2.0 | 0.00 | 0.00 | 0.00 | 98 | 1013.0 |
| 20260901063812 | 64 | 59 | 2.0 | 2.0 | 0.00 | 0.00 | 0.00 | 98 | 1013.1 |
| 20260901063308 | 64 | 76 | 1.0 | 2.0 | 0.00 | 0.00 | 0.00 | 98 | 1013.1 |
| 20260901062804 | 64 | 64 | 1.0 | 2.0 | 0.00 | 0.00 | 0.00 | 98 | 1013.2 |
| 20260901062259 | 64 | 71 | 1.0 | 2.0 | 0.00 | 0.00 | 0.00 | 98 | 1013.0 |
| 20260901061755 | 64 | 77 | 1.0 | 2.0 | 0.00 | 0.00 | 0.00 | 98 | 1013.4 |
| 20260901061507 | 65 | 93 | 0.0 | 0.0 | 0.00 | 0.15 | 0.00 | 98 | 1011.9 |
| 20260901061255 | 64 | 69 | 1.0 | 2.0 | 0.00 | 0.00 | 0.00 | 98 | 1013.5 |
| 20260901060750 | 64 | 34 | 1.0 | 2.0 | 0.00 | 0.00 | 0.00 | 98 | 1013.5 |
| 20260901060245 | 64 | 63 | 1.0 | 2.0 | 0.00 | 0.00 | 0.00 | 98 | 1013.3 |
| 20260901055740 | 64 | 51 | 0.0 | 2.0 | 0.00 | 0.00 | 0.00 | 98 | 1013.4 |
| 20260901055237 | 64 | 50 | 2.0 | 2.0 | 0.00 | 0.00 | 0.00 | 98 | 1013.5 |
| 20260901054734 | 64 | 66 | 2.0 | 2.0 | 0.00 | 0.00 | 0.00 | 98 | 1013.6 |
| 20260901054507 | 65 | 93 | 0.0 | 0.0 | 0.00 | 0.16 | 0.00 | 98 | 1011.9 |
| 20260901054230 | 65 | 57 | 0.0 | 2.0 | 0.00 | 0.00 | 0.00 | 98 | 1013.5 |
| 20260901053726 | 65 | 52 | 1.0 | 2.0 | 0.00 | 0.00 | 0.00 | 98 | 1013.5 |
| 20260901053221 | 65 | 65 | 0.0 | 2.0 | 0.00 | 0.00 | 0.00 | 98 | 1013.5 |
| 20260901053007 | 65 | 93 | 0.0 | 0.0 | 0.00 | 0.17 | 0.00 | 98 | 1011.9 |
| 20260901052716 | 65 | 65 | 2.0 | 2.0 | 0.00 | 0.00 | 0.00 | 98 | 1013.4 |
| 20260901052212 | 65 | 55 | 2.0 | 2.0 | 0.00 | 0.00 | 0.00 | 98 | 1013.7 |
| 20260901051711 | 65 | 77 | 0.0 | 2.0 | 0.00 | 0.00 | 0.00 | 98 | 1013.7 |
| 20260901051507 | 65 | 93 | 0.0 | 0.0 | 0.00 | 0.17 | 0.00 | 98 | 1012.0 |
| 20260901051210 | 65 | 64 | 0.0 | 2.0 | 0.00 | 0.00 | 0.00 | 98 | 1013.5 |
| 20260901050706 | 65 | 62 | 1.0 | 1.0 | 0.00 | 0.00 | 0.00 | 98 | 1013.8 |
| 20260901050201 | 65 | 78 | 1.0 | 2.0 | 0.00 | 0.00 | 0.00 | 98 | 1013.7 |
| 20260901050006 | 66 | 93 | 0.0 | 0.0 | 0.00 | 0.17 | 0.00 | 98 | 1011.9 |
| 20260901045656 | 65 | 65 | 2.0 | 2.0 | 0.00 | 0.00 | 0.00 | 98 | 1013.5 |
| 20260901045151 | 65 | 69 | 0.0 | 2.0 | 0.00 | 0.00 | 0.00 | 98 | 1013.8 |
| 20260901044646 | 66 | 53 | 1.0 | 2.0 | 0.00 | 0.00 | 0.00 | 98 | 1013.8 |
| 20260901044507 | 66 | 93 | 0.0 | 0.0 | 0.00 | 0.17 | 0.00 | 98 | 1012.2 |
| 20260901044142 | 66 | 50 | 2.0 | 2.0 | 0.00 | 0.00 | 0.00 | 98 | 1013.8 |
| 20260901043638 | 66 | 38 | 1.0 | 2.0 | 0.00 | 0.00 | 0.00 | 98 | 1013.6 |
| 20260901043134 | 66 | 25 | 0.0 | 1.0 | 0.00 | 0.00 | 0.00 | 98 | 1013.8 |
| 20260901042632 | 66 | 40 | 0.0 | 2.0 | 0.00 | 0.00 | 0.00 | 98 | 1013.7 |
| 20260901042127 | 66 | 62 | 2.0 | 2.0 | 0.00 | 0.00 | 0.00 | 98 | 1013.6 |
| 20260901041623 | 66 | 67 | 1.0 | 2.0 | 0.00 | 0.00 | 0.00 | 98 | 1013.8 |
| 20260901041507 | 66 | 93 | 0.0 | 0.0 | 0.00 | 0.18 | 0.00 | 98 | 1012.2 |
| 20260901041118 | 66 | 59 | 1.0 | 2.0 | 0.00 | 0.00 | 0.00 | 98 | 1013.6 |
| 20260901040618 | 66 | 38 | 1.0 | 2.0 | 0.00 | 0.00 | 0.00 | 98 | 1013.8 |
| 20260901040112 | 66 | 53 | 1.0 | 2.0 | 0.00 | 0.18 | 0.18 | 98 | 1013.6 |
| 20260901040008 | 66 | 93 | 0.0 | 0.0 | 0.00 | 0.19 | 0.00 | 98 | 1012.0 |
| 20260901035610 | 66 | 45 | 1.0 | 2.0 | 0.00 | 0.18 | 0.18 | 98 | 1013.6 |
| 20260901035109 | 66 | 61 | 2.0 | 2.0 | 0.00 | 0.18 | 0.18 | 98 | 1013.8 |
| 20260901034609 | 66 | 53 | 1.0 | 2.0 | 0.00 | 0.18 | 0.18 | 98 | 1013.7 |
| 20260901034507 | 66 | 93 | 0.0 | 0.0 | 0.00 | 0.21 | 0.19 | 98 | 1012.2 |
| 20260901034103 | 66 | 66 | 0.0 | 2.0 | 0.00 | 0.18 | 0.18 | 98 | 1013.7 |
| 20260901033602 | 66 | 43 | 1.0 | 2.0 | 0.00 | 0.18 | 0.18 | 98 | 1013.8 |
| 20260901033057 | 66 | 60 | 1.0 | 2.0 | 0.00 | 0.18 | 0.18 | 98 | 1013.6 |
| 20260901033007 | 66 | 93 | 0.0 | 0.0 | 0.00 | 0.21 | 0.19 | 98 | 1012.0 |
| 20260901032555 | 66 | 43 | 1.0 | 2.0 | 0.00 | 0.18 | 0.18 | 98 | 1013.6 |
| 20260901032051 | 66 | 46 | 1.0 | 2.0 | 0.00 | 0.18 | 0.18 | 98 | 1013.7 |
| 20260901031546 | 66 | 34 | 1.0 | 2.0 | 0.00 | 0.18 | 0.18 | 98 | 1013.4 |
| 20260901031506 | 66 | 93 | 0.0 | 0.0 | 0.01 | 0.21 | 0.19 | 98 | 1011.9 |
| 20260901031042 | 66 | 48 | 1.0 | 2.0 | 0.00 | 0.18 | 0.18 | 98 | 1013.5 |
| 20260901030541 | 66 | 45 | 1.0 | 2.0 | 0.00 | 0.18 | 0.18 | 98 | 1013.6 |
| 20260901030036 | 66 | 57 | 2.0 | 2.0 | 0.00 | 0.18 | 0.18 | 98 | 1013.6 |
| 20260901030007 | 67 | 93 | 0.0 | 1.0 | 0.01 | 0.21 | 0.19 | 98 | 1011.9 |
| 20260901025530 | 66 | 39 | 1.0 | 2.0 | 0.00 | 0.18 | 0.18 | 98 | 1013.7 |
| 20260901025030 | 66 | 69 | 2.0 | 2.0 | 0.00 | 0.18 | 0.18 | 98 | 1013.7 |
| 20260901024526 | 66 | 41 | 1.0 | 2.0 | 0.00 | 0.18 | 0.18 | 98 | 1013.8 |
| 20260901024025 | 66 | 74 | 0.0 | 2.0 | 0.00 | 0.18 | 0.18 | 98 | 1014.0 |
| 20260901023524 | 66 | 47 | 1.0 | 2.0 | 0.02 | 0.18 | 0.18 | 98 | 1014.0 |
| 20260901023019 | 66 | 76 | 0.0 | 2.0 | 0.05 | 0.18 | 0.18 | 98 | 1014.1 |
| 20260901023007 | 67 | 93 | 0.0 | 1.0 | 0.01 | 0.21 | 0.19 | 98 | 1012.3 |
| 20260901022515 | 66 | 50 | 1.0 | 2.0 | 0.02 | 0.18 | 0.18 | 97 | 1014.1 |
| 20260901022009 | 66 | 67 | 1.0 | 2.0 | 0.00 | 0.17 | 0.17 | 97 | 1014.2 |
| 20260901021507 | 67 | 93 | 0.0 | 0.0 | 0.00 | 0.20 | 0.18 | 98 | 1012.7 |
| 20260901021505 | 66 | 39 | 0.0 | 2.0 | 0.00 | 0.17 | 0.17 | 97 | 1014.3 |
| 20260901021000 | 66 | 41 | 0.0 | 2.0 | 0.00 | 0.17 | 0.17 | 97 | 1014.3 |
| 20260901020455 | 66 | 27 | 1.0 | 2.0 | 0.00 | 0.17 | 0.17 | 97 | 1014.3 |
| 20260901020007 | 67 | 93 | 0.0 | 0.0 | 0.00 | 0.20 | 0.18 | 98 | 1012.7 |
| 20260901015954 | 66 | 59 | 0.0 | 2.0 | 0.00 | 0.17 | 0.17 | 97 | 1014.3 |
| 20260901015451 | 67 | 61 | 0.0 | 2.0 | 0.00 | 0.17 | 0.17 | 97 | 1014.4 |
| 20260901014951 | 67 | 42 | 1.0 | 2.0 | 0.00 | 0.17 | 0.17 | 97 | 1014.5 |
| 20260901014506 | 67 | 93 | 0.0 | 0.0 | 0.00 | 0.20 | 0.18 | 97 | 1012.7 |
| 20260901014447 | 67 | 87 | 1.0 | 2.0 | 0.00 | 0.17 | 0.17 | 97 | 1014.3 |
| 20260901013942 | 67 | 52 | 2.0 | 2.0 | 0.00 | 0.17 | 0.17 | 97 | 1014.5 |
| 20260901013438 | 67 | 58 | 1.0 | 2.0 | 0.00 | 0.17 | 0.17 | 97 | 1014.2 |
| 20260901013007 | 67 | 93 | 0.0 | 1.0 | 0.00 | 0.20 | 0.18 | 97 | 1012.7 |
| 20260901012934 | 67 | 42 | 2.0 | 2.0 | 0.00 | 0.17 | 0.17 | 97 | 1014.3 |
| 20260901012433 | 67 | 64 | 1.0 | 2.0 | 0.00 | 0.17 | 0.17 | 97 | 1014.3 |
| 20260901011929 | 67 | 52 | 0.0 | 2.0 | 0.00 | 0.17 | 0.17 | 97 | 1014.3 |
| 20260901011507 | 67 | 93 | 0.0 | 0.0 | 0.00 | 0.20 | 0.18 | 97 | 1012.7 |
| 20260901011425 | 67 | 18 | 0.0 | 2.0 | 0.00 | 0.17 | 0.17 | 97 | 1014.5 |
| 20260901010923 | 67 | 56 | 1.0 | 2.0 | 0.00 | 0.17 | 0.17 | 97 | 1014.4 |
| 20260901010418 | 67 | 56 | 1.0 | 2.0 | 0.00 | 0.17 | 0.17 | 97 | 1014.4 |
| 20260901010007 | 67 | 93 | 0.0 | 0.0 | 0.00 | 0.20 | 0.18 | 97 | 1012.7 |
| 20260901005917 | 67 | 36 | 1.0 | 2.0 | 0.00 | 0.17 | 0.17 | 97 | 1014.3 |
| 20260901005412 | 67 | 51 | 0.0 | 2.0 | 0.00 | 0.17 | 0.17 | 97 | 1014.2 |
| 20260901004907 | 67 | 123 | 0.0 | 2.0 | 0.00 | 0.17 | 0.17 | 97 | 1013.9 |
| 20260901004406 | 67 | 50 | 1.0 | 2.0 | 0.00 | 0.17 | 0.17 | 97 | 1014.0 |
| 20260901003902 | 67 | 59 | 0.0 | 2.0 | 0.00 | 0.17 | 0.17 | 97 | 1014.0 |
| 20260901003356 | 67 | 51 | 1.0 | 2.0 | 0.00 | 0.17 | 0.17 | 97 | 1013.9 |
| 20260901003006 | 67 | 93 | 0.0 | 0.0 | 0.00 | 0.20 | 0.18 | 97 | 1012.3 |
| 20260901002855 | 67 | 28 | 1.0 | 2.0 | 0.00 | 0.17 | 0.17 | 97 | 1013.8 |
| 20260901002354 | 67 | 23 | 0.0 | 2.0 | 0.00 | 0.17 | 0.17 | 97 | 1014.0 |
| 20260901001849 | 67 | 31 | 0.0 | 2.0 | 0.00 | 0.17 | 0.17 | 96 | 1013.9 |
| 20260901001507 | 67 | 93 | 0.0 | 1.0 | 0.00 | 0.20 | 0.18 | 96 | 1012.4 |
| 20260901001345 | 67 | 54 | 0.0 | 2.0 | 0.00 | 0.17 | 0.17 | 96 | 1014.1 |
| 20260901000840 | 67 | 62 | 0.0 | 2.0 | 0.00 | 0.17 | 0.17 | 96 | 1014.0 |
| 20260901000336 | 67 | 41 | 2.0 | 2.0 | 0.00 | 0.17 | 0.17 | 96 | 1014.0 |
| 20260901000007 | 67 | 93 | 0.0 | 0.0 | 0.00 | 0.20 | 0.18 | 96 | 1012.4 |
| 20260831235833 | 67 | 58 | 0.0 | 1.0 | 0.00 | 0.17 | 0.17 | 96 | 1013.9 |
| 20260831235330 | 67 | 45 | 1.0 | 2.0 | 0.00 | 0.17 | 0.17 | 96 | 1014.2 |
| 20260831234825 | 67 | 52 | 0.0 | 2.0 | 0.00 | 0.17 | 0.17 | 96 | 1014.2 |
| 20260831234506 | 68 | 93 | 0.0 | 1.0 | 0.00 | 0.20 | 0.18 | 96 | 1012.5 |
| 20260831234324 | 67 | 60 | 2.0 | 2.0 | 0.00 | 0.17 | 0.17 | 96 | 1014.2 |
| 20260831233820 | 67 | 17 | 2.0 | 2.0 | 0.00 | 0.17 | 0.17 | 96 | 1014.1 |
| 20260831233315 | 67 | 54 | 1.0 | 2.0 | 0.00 | 0.17 | 0.17 | 95 | 1014.1 |
| 20260831232810 | 68 | 49 | 1.0 | 2.0 | 0.00 | 0.17 | 0.17 | 95 | 1014.3 |
| 20260831232307 | 68 | 101 | 1.0 | 2.0 | 0.00 | 0.17 | 0.17 | 95 | 1014.2 |
| 20260831231803 | 68 | 66 | 0.0 | 2.0 | 0.00 | 0.17 | 0.17 | 95 | 1014.3 |
| 20260831231259 | 68 | 9 | 0.0 | 2.0 | 0.00 | 0.17 | 0.17 | 94 | 1014.3 |
| 20260831230753 | 68 | 72 | 0.0 | 2.0 | 0.00 | 0.17 | 0.17 | 94 | 1014.4 |
| 20260831230248 | 68 | 49 | 1.0 | 2.0 | 0.00 | 0.17 | 0.17 | 94 | 1014.3 |
| 20260831230007 | 68 | 93 | 0.0 | 0.0 | 0.00 | 0.20 | 0.18 | 95 | 1012.8 |
| 20260831225747 | 68 | 60 | 1.0 | 2.0 | 0.00 | 0.17 | 0.17 | 93 | 1014.3 |
| 20260831225243 | 68 | 69 | 2.0 | 2.0 | 0.00 | 0.17 | 0.17 | 93 | 1014.4 |
| 20260831224738 | 68 | 70 | 0.0 | 2.0 | 0.00 | 0.17 | 0.17 | 94 | 1014.7 |
| 20260831224506 | 68 | 93 | 0.0 | 1.0 | 0.01 | 0.20 | 0.18 | 95 | 1012.9 |
| 20260831224233 | 68 | 44 | 1.0 | 2.0 | 0.00 | 0.17 | 0.17 | 94 | 1014.5 |
| 20260831223728 | 69 | 66 | 1.0 | 2.0 | 0.00 | 0.17 | 0.17 | 94 | 1014.5 |
| 20260831223225 | 68 | 52 | 1.0 | 2.0 | 0.00 | 0.17 | 0.17 | 94 | 1014.7 |
| 20260831223007 | 68 | 93 | 0.0 | 1.0 | 0.01 | 0.20 | 0.18 | 95 | 1013.0 |
| 20260831222720 | 68 | 46 | 0.0 | 2.0 | 0.00 | 0.17 | 0.17 | 94 | 1014.6 |
| 20260831222216 | 68 | 70 | 0.0 | 2.0 | 0.00 | 0.17 | 0.17 | 94 | 1014.8 |
| 20260831221711 | 68 | 70 | 0.0 | 2.0 | 0.00 | 0.17 | 0.17 | 95 | 1014.7 |
| 20260831221507 | 68 | 93 | 0.0 | 1.0 | 0.05 | 0.20 | 0.18 | 96 | 1013.3 |
| 20260831221207 | 68 | 43 | 1.0 | 2.0 | 0.00 | 0.17 | 0.17 | 95 | 1015.0 |
| 20260831220701 | 68 | 53 | 0.0 | 1.0 | 0.00 | 0.17 | 0.17 | 95 | 1014.8 |
| 20260831220157 | 68 | 72 | 1.0 | 2.0 | 0.00 | 0.17 | 0.17 | 94 | 1015.0 |
| 20260831220006 | 68 | 93 | 0.0 | 1.0 | 0.05 | 0.20 | 0.18 | 95 | 1013.4 |
| 20260831215651 | 68 | 72 | 2.0 | 2.0 | 0.02 | 0.17 | 0.17 | 94 | 1014.9 |
| 20260831215147 | 68 | 4 | 0.0 | 2.0 | 0.05 | 0.17 | 0.17 | 94 | 1014.9 |
| 20260831214644 | 68 | 34 | 2.0 | 2.0 | 0.05 | 0.17 | 0.17 | 94 | 1014.9 |
| 20260831214509 | 68 | 93 | 0.0 | 0.0 | 0.04 | 0.19 | 0.17 | 94 | 1013.4 |
| 20260831214141 | 68 | 49 | 2.0 | 2.0 | 0.02 | 0.17 | 0.17 | 93 | 1014.9 |
| 20260831213637 | 68 | 68 | 2.0 | 2.0 | 0.00 | 0.16 | 0.16 | 92 | 1015.1 |
| 20260831213132 | 68 | 8 | 1.0 | 2.0 | 0.09 | 0.16 | 0.16 | 92 | 1015.1 |
| 20260831213008 | 68 | 93 | 0.0 | 3.0 | 0.04 | 0.19 | 0.17 | 92 | 1013.4 |
| 20260831212628 | 68 | 62 | 2.0 | 2.0 | 0.21 | 0.16 | 0.16 | 91 | 1015.0 |
| 20260831212124 | 68 | 62 | 0.0 | 2.0 | 0.07 | 0.14 | 0.14 | 90 | 1015.1 |
| 20260831211624 | 68 | 59 | 2.0 | 2.0 | 0.00 | 0.13 | 0.13 | 91 | 1015.1 |
| 20260831211507 | 69 | 230 | 0.0 | 1.0 | 0.00 | 0.15 | 0.13 | 91 | 1013.5 |
| 20260831211123 | 69 | 66 | 0.0 | 2.0 | 0.00 | 0.13 | 0.13 | 91 | 1015.2 |
| 20260831210619 | 69 | 107 | 0.0 | 2.0 | 0.00 | 0.13 | 0.13 | 90 | 1014.9 |
| 20260831210115 | 69 | 51 | 0.0 | 2.0 | 0.00 | 0.13 | 0.13 | 91 | 1015.0 |
| 20260831210006 | 69 | 230 | 0.0 | 1.0 | 0.00 | 0.15 | 0.13 | 92 | 1013.4 |
| 20260831205614 | 69 | 49 | 1.0 | 2.0 | 0.00 | 0.13 | 0.13 | 90 | 1015.1 |
| 20260831205111 | 69 | 47 | 2.0 | 2.0 | 0.00 | 0.13 | 0.13 | 91 | 1015.1 |
| 20260831204610 | 69 | 69 | 1.0 | 2.0 | 0.00 | 0.13 | 0.13 | 90 | 1015.0 |
| 20260831204507 | 69 | 230 | 0.0 | 1.0 | 0.00 | 0.15 | 0.13 | 91 | 1013.4 |
| 20260831204108 | 69 | 80 | 0.0 | 2.0 | 0.00 | 0.13 | 0.13 | 90 | 1015.0 |
| 20260831203608 | 69 | 57 | 1.0 | 2.0 | 0.00 | 0.13 | 0.13 | 89 | 1015.0 |
| 20260831203103 | 69 | 45 | 0.0 | 2.0 | 0.00 | 0.13 | 0.13 | 88 | 1015.3 |
| 20260831203008 | 69 | 232 | 0.0 | 2.0 | 0.00 | 0.15 | 0.13 | 90 | 1013.5 |
| 20260831202602 | 69 | 53 | 1.0 | 2.0 | 0.00 | 0.13 | 0.13 | 89 | 1015.2 |
| 20260831202101 | 69 | 63 | 2.0 | 2.0 | 0.00 | 0.13 | 0.13 | 88 | 1015.1 |
| 20260831201600 | 69 | 85 | 2.0 | 4.0 | 0.00 | 0.13 | 0.13 | 89 | 1015.1 |
| 20260831201507 | 68 | 116 | 1.0 | 2.0 | 0.00 | 0.15 | 0.13 | 93 | 1013.5 |
| 20260831201055 | 69 | 25 | 0.0 | 2.0 | 0.00 | 0.13 | 0.13 | 90 | 1015.2 |
| 20260831200551 | 68 | 41 | 0.0 | 2.0 | 0.00 | 0.13 | 0.13 | 90 | 1015.3 |
| 20260831200051 | 68 | 45 | 1.0 | 2.0 | 0.00 | 0.13 | 0.13 | 89 | 1015.5 |
| 20260831195547 | 68 | 344 | 1.0 | 1.0 | 0.00 | 0.13 | 0.13 | 90 | 1015.2 |
| 20260831195042 | 69 | 89 | 0.0 | 2.0 | 0.00 | 0.13 | 0.13 | 90 | 1015.2 |
| 20260831194537 | 68 | 41 | 1.0 | 2.0 | 0.00 | 0.13 | 0.13 | 90 | 1015.4 |
| 20260831194507 | 67 | 180 | 0.0 | 1.0 | 0.00 | 0.15 | 0.13 | 94 | 1013.9 |
| 20260831194032 | 68 | 82 | 1.0 | 4.0 | 0.00 | 0.13 | 0.13 | 90 | 1015.3 |
| 20260831193527 | 68 | 274 | 0.0 | 2.0 | 0.00 | 0.13 | 0.13 | 91 | 1015.4 |
| 20260831193022 | 67 | 67 | 2.0 | 2.0 | 0.00 | 0.13 | 0.13 | 92 | 1015.7 |
| 20260831193008 | 67 | 148 | 0.0 | 1.0 | 0.00 | 0.15 | 0.13 | 95 | 1014.0 |
| 20260831192517 | 67 | 97 | 0.0 | 2.0 | 0.00 | 0.13 | 0.13 | 93 | 1015.7 |
| 20260831192012 | 67 | 340 | 0.0 | 1.0 | 0.00 | 0.13 | 0.13 | 93 | 1015.5 |
| 20260831191508 | 67 | 180 | 0.0 | 2.0 | 0.00 | 0.13 | 0.13 | 93 | 1015.6 |
| 20260831191004 | 66 | 61 | 0.0 | 3.0 | 0.00 | 0.13 | 0.13 | 93 | 1015.7 |
| 20260831190459 | 66 | 151 | 1.0 | 2.0 | 0.00 | 0.13 | 0.13 | 93 | 1015.9 |
| 20260831185957 | 66 | 287 | 0.0 | 2.0 | 0.02 | 0.13 | 0.13 | 93 | 1016.2 |
| 20260831185454 | 66 | 79 | 1.0 | 2.0 | 0.02 | 0.13 | 0.13 | 93 | 1016.3 |
| 20260831184954 | 66 | 38 | 0.0 | 2.0 | 0.00 | 0.12 | 0.12 | 92 | 1016.3 |
| 20260831184506 | 66 | 276 | 0.0 | 2.0 | 0.07 | 0.15 | 0.13 | 93 | 1014.9 |
| 20260831184448 | 66 | 237 | 0.0 | 3.0 | 0.00 | 0.12 | 0.12 | 92 | 1016.5 |
| 20260831183944 | 66 | 44 | 0.0 | 3.0 | 0.00 | 0.12 | 0.12 | 92 | 1016.3 |
| 20260831183443 | 66 | 97 | 0.0 | 3.0 | 0.00 | 0.12 | 0.12 | 92 | 1016.5 |
| 20260831183006 | 66 | 259 | 0.0 | 2.0 | 0.09 | 0.15 | 0.13 | 93 | 1015.0 |
| 20260831182943 | 66 | 68 | 1.0 | 3.0 | 0.02 | 0.12 | 0.12 | 93 | 1016.4 |
| 20260831182438 | 66 | 307 | 0.0 | 2.0 | 0.05 | 0.12 | 0.12 | 93 | 1016.9 |
| 20260831181933 | 66 | 40 | 0.0 | 2.0 | 0.02 | 0.12 | 0.12 | 93 | 1016.7 |
| 20260831181506 | 66 | 296 | 0.0 | 1.0 | 0.08 | 0.14 | 0.12 | 93 | 1015.1 |
| 20260831181429 | 66 | 356 | 1.0 | 2.0 | 0.07 | 0.11 | 0.11 | 93 | 1016.8 |
| 20260831180929 | 66 | 43 | 1.0 | 2.0 | 0.12 | 0.11 | 0.11 | 93 | 1016.8 |
| 20260831180423 | 66 | 77 | 1.0 | 2.0 | 0.12 | 0.10 | 0.10 | 93 | 1016.8 |
| 20260831180007 | 66 | 35 | 0.0 | 1.0 | 0.06 | 0.12 | 0.10 | 92 | 1015.3 |
| 20260831175923 | 66 | 37 | 2.0 | 3.0 | 0.19 | 0.09 | 0.09 | 92 | 1016.9 |
| 20260831175419 | 66 | 52 | 2.0 | 3.0 | 0.12 | 0.08 | 0.08 | 91 | 1017.2 |
| 20260831174915 | 66 | 39 | 2.0 | 2.0 | 0.07 | 0.06 | 0.06 | 91 | 1017.0 |
| 20260831174507 | 67 | 40 | 0.0 | 1.0 | 0.02 | 0.08 | 0.06 | 91 | 1015.4 |
| 20260831174410 | 66 | 66 | 1.0 | 2.0 | 0.07 | 0.06 | 0.06 | 91 | 1017.0 |
| 20260831173909 | 66 | 52 | 2.0 | 3.0 | 0.05 | 0.05 | 0.05 | 91 | 1017.0 |
| 20260831173403 | 66 | 71 | 2.0 | 3.0 | 0.02 | 0.05 | 0.05 | 90 | 1017.1 |
| 20260831172859 | 66 | 68 | 2.0 | 3.0 | 0.00 | 0.04 | 0.04 | 89 | 1017.1 |
| 20260831172354 | 67 | 45 | 2.0 | 3.0 | 0.00 | 0.04 | 0.04 | 87 | 1017.3 |
| 20260831171849 | 67 | 92 | 1.0 | 2.0 | 0.00 | 0.04 | 0.04 | 87 | 1017.2 |
| 20260831171506 | 67 | 42 | 0.0 | 1.0 | 0.00 | 0.06 | 0.04 | 88 | 1015.6 |
| 20260831171345 | 67 | 54 | 0.0 | 3.0 | 0.00 | 0.04 | 0.04 | 88 | 1017.4 |
| 20260831170842 | 67 | 87 | 2.0 | 3.0 | 0.00 | 0.04 | 0.04 | 88 | 1017.1 |
| 20260831170337 | 67 | 71 | 2.0 | 3.0 | 0.00 | 0.04 | 0.04 | 88 | 1017.1 |
| 20260831170007 | 67 | 57 | 0.0 | 1.0 | 0.00 | 0.06 | 0.04 | 88 | 1015.5 |
| 20260831165833 | 67 | 73 | 2.0 | 2.0 | 0.00 | 0.04 | 0.04 | 88 | 1017.2 |
| 20260831165330 | 67 | 81 | 2.0 | 3.0 | 0.00 | 0.04 | 0.04 | 88 | 1017.1 |
| 20260831164826 | 67 | 295 | 0.0 | 2.0 | 0.00 | 0.04 | 0.04 | 88 | 1017.0 |
| 20260831164507 | 67 | 57 | 0.0 | 1.0 | 0.00 | 0.06 | 0.04 | 88 | 1015.5 |
| 20260831164322 | 67 | 68 | 2.0 | 2.0 | 0.00 | 0.04 | 0.04 | 87 | 1017.2 |
| 20260831163817 | 67 | 89 | 0.0 | 2.0 | 0.00 | 0.04 | 0.04 | 86 | 1017.2 |
| 20260831163313 | 67 | 73 | 2.0 | 3.0 | 0.00 | 0.04 | 0.04 | 86 | 1017.1 |
| 20260831163007 | 67 | 65 | 0.0 | 1.0 | 0.00 | 0.06 | 0.04 | 88 | 1015.5 |
| 20260831162811 | 67 | 47 | 1.0 | 2.0 | 0.00 | 0.04 | 0.04 | 87 | 1017.0 |
| 20260831162306 | 66 | 54 | 1.0 | 2.0 | 0.00 | 0.04 | 0.04 | 86 | 1017.2 |
| 20260831161805 | 66 | 76 | 1.0 | 3.0 | 0.00 | 0.04 | 0.04 | 88 | 1017.2 |
| 20260831161507 | 67 | 65 | 0.0 | 1.0 | 0.00 | 0.06 | 0.04 | 87 | 1015.5 |
| 20260831161302 | 66 | 82 | 1.0 | 3.0 | 0.00 | 0.04 | 0.04 | 87 | 1017.2 |
| 20260831160801 | 66 | 187 | 0.0 | 2.0 | 0.00 | 0.04 | 0.04 | 88 | 1017.2 |
| 20260831160256 | 67 | 52 | 1.0 | 2.0 | 0.00 | 0.04 | 0.04 | 89 | 1017.1 |
| 20260831160006 | 67 | 87 | 0.0 | 1.0 | 0.00 | 0.06 | 0.04 | 88 | 1015.6 |
| 20260831155756 | 67 | 83 | 2.0 | 2.0 | 0.00 | 0.04 | 0.04 | 89 | 1017.2 |
| 20260831155251 | 67 | 57 | 0.0 | 2.0 | 0.00 | 0.04 | 0.04 | 89 | 1017.3 |
| 20260831154747 | 67 | 55 | 0.0 | 2.0 | 0.00 | 0.04 | 0.04 | 89 | 1017.2 |
| 20260831154243 | 67 | 73 | 1.0 | 2.0 | 0.02 | 0.04 | 0.04 | 88 | 1017.1 |
| 20260831153742 | 68 | 65 | 1.0 | 2.0 | 0.05 | 0.04 | 0.04 | 88 | 1017.3 |
| 20260831153238 | 68 | 97 | 0.0 | 3.0 | 0.02 | 0.04 | 0.04 | 87 | 1017.1 |
| 20260831153007 | 68 | 65 | 0.0 | 0.0 | 0.00 | 0.06 | 0.04 | 85 | 1015.5 |
| 20260831152733 | 68 | 61 | 0.0 | 2.0 | 0.00 | 0.04 | 0.04 | 85 | 1017.4 |
| 20260831152230 | 68 | 36 | 1.0 | 2.0 | 0.00 | 0.04 | 0.04 | 85 | 1017.1 |
| 20260831151729 | 68 | 56 | 2.0 | 2.0 | 0.00 | 0.04 | 0.04 | 84 | 1017.2 |
| 20260831151229 | 69 | 58 | 2.0 | 2.0 | 0.00 | 0.04 | 0.04 | 84 | 1017.3 |
| 20260831150724 | 69 | 52 | 0.0 | 2.0 | 0.00 | 0.04 | 0.04 | 84 | 1017.1 |
| 20260831150220 | 68 | 44 | 0.0 | 2.0 | 0.00 | 0.04 | 0.04 | 82 | 1017.2 |
| 20260831145719 | 68 | 14 | 0.0 | 2.0 | 0.00 | 0.04 | 0.04 | 82 | 1017.2 |
| 20260831145215 | 68 | 78 | 0.0 | 2.0 | 0.00 | 0.04 | 0.04 | 82 | 1017.2 |
| 20260831144711 | 68 | 64 | 0.0 | 2.0 | 0.00 | 0.04 | 0.04 | 83 | 1017.2 |
| 20260831144506 | 68 | 65 | 0.0 | 0.0 | 0.00 | 0.06 | 0.04 | 84 | 1015.4 |
| 20260831144207 | 68 | 58 | 0.0 | 2.0 | 0.00 | 0.04 | 0.04 | 85 | 1017.2 |
| 20260831143706 | 68 | 135 | 0.0 | 2.0 | 0.00 | 0.04 | 0.04 | 84 | 1017.1 |
| 20260831143201 | 69 | 118 | 0.0 | 2.0 | 0.00 | 0.04 | 0.04 | 83 | 1017.2 |
| 20260831142658 | 68 | 76 | 2.0 | 2.0 | 0.00 | 0.04 | 0.04 | 83 | 1017.4 |
| 20260831142153 | 69 | 45 | 0.0 | 1.0 | 0.00 | 0.04 | 0.04 | 82 | 1017.1 |
| 20260831141652 | 69 | 86 | 0.0 | 2.0 | 0.00 | 0.04 | 0.04 | 82 | 1017.3 |
| 20260831141506 | 69 | 65 | 0.0 | 0.0 | 0.00 | 0.06 | 0.04 | 81 | 1015.5 |
| 20260831141147 | 69 | 68 | 0.0 | 2.0 | 0.00 | 0.04 | 0.04 | 80 | 1017.3 |
| 20260831140646 | 69 | 65 | 0.0 | 2.0 | 0.00 | 0.04 | 0.04 | 81 | 1017.1 |
| 20260831140141 | 69 | 22 | 0.0 | 2.0 | 0.00 | 0.04 | 0.04 | 81 | 1017.1 |
| 20260831140006 | 69 | 345 | 0.0 | 2.0 | 0.00 | 0.06 | 0.04 | 83 | 1015.4 |
| 20260831135639 | 69 | 30 | 0.0 | 2.0 | 0.00 | 0.04 | 0.04 | 82 | 1017.2 |
| 20260831135135 | 69 | 72 | 0.0 | 2.0 | 0.00 | 0.04 | 0.04 | 81 | 1017.3 |
| 20260831134631 | 69 | 191 | 0.0 | 1.0 | 0.00 | 0.04 | 0.04 | 82 | 1017.2 |
| 20260831134507 | 69 | 142 | 1.0 | 2.0 | 0.00 | 0.06 | 0.04 | 85 | 1015.4 |
| 20260831134126 | 70 | 74 | 2.0 | 2.0 | 0.00 | 0.04 | 0.04 | 79 | 1017.2 |
| 20260831133625 | 70 | 66 | 2.0 | 2.0 | 0.00 | 0.04 | 0.04 | 81 | 1017.2 |
| 20260831133120 | 69 | 72 | 0.0 | 2.0 | 0.00 | 0.04 | 0.04 | 83 | 1017.2 |
| 20260831133007 | 68 | 101 | 0.0 | 1.0 | 0.00 | 0.06 | 0.04 | 87 | 1015.5 |
| 20260831132616 | 69 | 55 | 1.0 | 2.0 | 0.00 | 0.04 | 0.04 | 82 | 1017.3 |
| 20260831132115 | 69 | 67 | 2.0 | 3.0 | 0.00 | 0.04 | 0.04 | 83 | 1017.3 |
| 20260831131610 | 68 | 50 | 0.0 | 2.0 | 0.00 | 0.04 | 0.04 | 86 | 1017.2 |
| 20260831131506 | 66 | 242 | 0.0 | 2.0 | 0.00 | 0.06 | 0.04 | 92 | 1015.6 |
| 20260831131106 | 68 | 44 | 0.0 | 2.0 | 0.00 | 0.04 | 0.04 | 86 | 1017.0 |
| 20260831130601 | 68 | 43 | 1.0 | 2.0 | 0.00 | 0.04 | 0.04 | 86 | 1017.2 |
| 20260831130056 | 67 | 36 | 1.0 | 2.0 | 0.00 | 0.04 | 0.04 | 90 | 1017.3 |
| 20260831130008 | 65 | 242 | 0.0 | 2.0 | 0.00 | 0.06 | 0.04 | 95 | 1015.6 |
| 20260831125555 | 66 | 259 | 1.0 | 3.0 | 0.00 | 0.04 | 0.04 | 91 | 1017.3 |
| 20260831125051 | 66 | 42 | 0.0 | 2.0 | 0.00 | 0.04 | 0.04 | 93 | 1017.3 |
| 20260831124547 | 65 | 353 | 0.0 | 2.0 | 0.00 | 0.04 | 0.04 | 93 | 1017.5 |
| 20260831124508 | 64 | 219 | 0.0 | 1.0 | 0.00 | 0.06 | 0.04 | 97 | 1015.6 |
| 20260831124043 | 65 | 72 | 0.0 | 1.0 | 0.00 | 0.04 | 0.04 | 94 | 1017.3 |
| 20260831123542 | 65 | 60 | 0.0 | 2.0 | 0.00 | 0.04 | 0.04 | 94 | 1017.3 |
| 20260831123037 | 65 | 54 | 2.0 | 2.0 | 0.00 | 0.04 | 0.04 | 95 | 1017.5 |
| 20260831123008 | 64 | 219 | 0.0 | 0.0 | 0.00 | 0.06 | 0.04 | 97 | 1015.7 |
| 20260831122536 | 65 | 45 | 0.0 | 2.0 | 0.00 | 0.04 | 0.04 | 95 | 1017.5 |
| 20260831122032 | 64 | 57 | 1.0 | 2.0 | 0.00 | 0.04 | 0.04 | 95 | 1017.4 |
| 20260831121526 | 64 | 77 | 2.0 | 2.0 | 0.00 | 0.04 | 0.04 | 96 | 1017.4 |
| 20260831121509 | 64 | 219 | 0.0 | 1.0 | 0.00 | 0.06 | 0.04 | 98 | 1015.8 |
| 20260831121023 | 64 | 11 | 0.0 | 1.0 | 0.00 | 0.04 | 0.04 | 96 | 1017.6 |
| 20260831120522 | 64 | 69 | 0.0 | 1.0 | 0.00 | 0.04 | 0.04 | 97 | 1017.4 |
| 20260831120017 | 64 | 51 | 2.0 | 2.0 | 0.00 | 0.04 | 0.04 | 97 | 1017.2 |
| 20260831120011 | 64 | 219 | 0.0 | 1.0 | 0.00 | 0.06 | 0.04 | 98 | 1015.6 |
| 20260831115513 | 64 | 82 | 2.0 | 2.0 | 0.00 | 0.04 | 0.04 | 97 | 1017.4 |
| 20260831115009 | 64 | 30 | 2.0 | 2.0 | 0.00 | 0.04 | 0.04 | 97 | 1017.5 |
| 20260831114511 | 64 | 219 | 0.0 | 1.0 | 0.00 | 0.06 | 0.04 | 98 | 1015.8 |
| 20260831114507 | 63 | 76 | 2.0 | 2.0 | 0.00 | 0.04 | 0.04 | 97 | 1017.6 |
| 20260831114003 | 64 | 40 | 2.0 | 2.0 | 0.00 | 0.04 | 0.04 | 97 | 1017.6 |
| 20260831113502 | 64 | 60 | 1.0 | 2.0 | 0.00 | 0.04 | 0.04 | 97 | 1017.5 |
| 20260831113009 | 64 | 219 | 0.0 | 0.0 | 0.00 | 0.06 | 0.04 | 98 | 1016.0 |
| 20260831112958 | 63 | 81 | 1.0 | 2.0 | 0.00 | 0.04 | 0.04 | 97 | 1017.6 |
| 20260831112457 | 63 | 62 | 1.0 | 2.0 | 0.00 | 0.04 | 0.04 | 97 | 1017.5 |
| 20260831111952 | 63 | 49 | 0.0 | 2.0 | 0.00 | 0.04 | 0.04 | 97 | 1017.4 |
| 20260831111448 | 63 | 50 | 2.0 | 3.0 | 0.00 | 0.04 | 0.04 | 97 | 1017.2 |